Starlink 30237

operational
NORAD ID: 57437 Int'l Des: 2023-105 Owner: SPXS Country: US Constellation: starlink
LEOCIRCULAR

About Starlink 30237

Description loading...

Live Position

Loading 3D Globe...

Upcoming Passes

Altitude History

Altitude vs Time

uPlot chart will show altitude changes over time

Two-Line Element Set

1 57437U 23105H 25350.33337963 .00047293 00000-0 23355-2 0 9994
2 57437 43.0001 352.3958 0000861 287.0174 212.0766 15.17157852 5804
Epoch: Dec 16, 2025 • Age: 13 hours

Current Status

Altitude 517.0 km
Velocity 7.61 km/s
Sub-Earth Point 38.50°N, 77.73°E
Launch Date Jul 24, 2023
Age 2.3 years
Type internet

Technical Details

Classification Payload
Mass 730.00 kg
Dry Mass 700.00 kg
Total Mass 730.00 kg
Length 0.30 m
Diameter 4.10 m
Span 29.00 m
Shape Box + pan
Manufacturer SPXS
Bus Type Starlink V2M
Phase Status In Orbit
Owner/State SPXS/US

Large Constellations

Loading constellations...